Погода в Видзах

Беларусь     55°23′33″N   26°37′54″E
темп.,
°C
ветер,
м/с
пор.,
м/с
влажн.,
%
обл.,
%
осадки,
мм/ч
давл.,
гПа
погр.,
м
24 июня, чт
чт2400:00+22ссз1189100 0.6 101712
03:00+21ююв1194100 2.3 101812
06:00+21юв119460 0.6 101721
09:00+24з348251 0.6 1017376
12:00+28юз226390 0.0 1017824
15:00+29ююз3358100 0.3 10171167
18:00+30ююв245885 0.0 1015987
21:00+25зюз22823 0.7 101418
25 июня, пт
пт2500:00+21юз3392100 4.1 101467
03:00+18вюв2395100 6.1 101554
06:00+19юв2390100 0.0 101348
09:00+23ю357845 0.0 1013374
12:00+27ююз346021 0.0 1012874
15:00+25юв3482100 3.8 1012355
18:00+26ю4682100 2.9 1011648
21:00+22зсз23914 4.4 101177
26 июня, сб
сб2600:00+20з2296100 0.1 101244
03:00+18зюз3599100 2.4 1012138
06:00+18зсз3799100 1.6 1012323
09:00+19з3596100 1.7 1013458
12:00+20зсз358676 0.1 1015636
15:00+22з347294 0.8 10151019
18:00+22з456694 0.2 1014999
21:00+19сз228284 0.3 101544
27 июня, вс
вс2700:00+16зсз3492100 0.0 101570
03:00+15зсз359665 0.0 101682
06:00+15сз259665 0.0 1016145
09:00+19сз2380100 0.0 1016575
12:00+22сз3363100 0.1 10161382
15:00+24сз3355100 0.1 10161680
18:00+24сз3458100 0.0 10151469
21:00+19сз377998 0.0 1016172
28 июня, пн
пн2800:00+16сз35925 0.0 101697
03:00+15ссз3494100 0.0 101772
06:00+15сз2493100 0.0 1017104
09:00+19ссз247490 0.0 1017501
12:00+23ссз3455100 0.0 10171620
15:00+25ссз3443100 0.0 10162203
18:00+25сз3450100 0.0 10152055
21:00+20сз4969100 0.0 1015302